Flag for U.S.A. Weather past 2 weeks in Toccoa, Georgia, U.S.A.

Now
80 °F

Clear.


Feels Like: 83 °F
Forecast: 70 / 95 °F
Wind: 3 mph from Southwest

Location: Clemson-Oconee County Airport

Current Time: Aug 4, 2015 at 1:26:12 AM

Latest Report: Aug 4, 2015 at 12:54 AM


Visibility: 10 mi

Pressure: 29.94 "Hg

Humidity: 71%

Dew point: 70 °F

Location of ToccoaLocation

Historic Weather in Toccoa — Graph

°F

Toccoa temperature yesterday

Maximum temperature yesterday: 97 °F (at 3:54 PM)
Minimum temperature yesterday: 72 °F (at 5:54 AM)
Average temperature yesterday: 84 °F

Past Weeks' High & Low Weather Summary

 TemperatureHumidityPressure
High98 °F (Jul 30, 5:54 PM)94% (Jul 30, 6:54 AM)30.02 "Hg (Jul 30, 6:54 AM)
Low69 °F (Aug 2, 5:54 AM)26% (Aug 2, 5:54 PM)29.75 "Hg (Jul 21, 4:54 PM)
Average83 °F64%29.93 "Hg
* Reported Jul 19 11:54 PM — Aug 3 11:54 PM, Toccoa, Weather by CustomWeather, © 2015

Note: Actual official high and low records may vary slightly from our data, if they occured in-between our weather recording intervals... More about our weather records

Advertising

Toccoa weather history for previous 24 hours

 ConditionsComfort  
Time TempWeatherWind HumidityBarometerVisibility
11:54 PM
Mon, Aug 3
80 °FClear.3 mph69%29.93 "Hg10 mi
10:54 PM84 °FClear.No wind49%29.91 "Hg10 mi
9:54 PM87 °FClear.5 mph39%29.90 "Hg10 mi
8:54 PM87 °FSunny.3 mph40%29.89 "Hg10 mi
7:54 PM90 °FSunny.No wind37%29.88 "Hg10 mi
6:54 PM94 °FSunny.No wind29%29.88 "Hg10 mi
5:54 PM95 °FSunny.3 mph27%29.87 "Hg10 mi
4:54 PM96 °FScattered clouds.7 mph28%29.88 "Hg10 mi
3:54 PM97 °FSunny.6 mph29%29.88 "Hg10 mi
2:54 PM93 °FSunny.3 mph31%29.90 "Hg10 mi
1:54 PM92 °FSunny.7 mph37%29.91 "Hg10 mi
12:54 PM89 °FSunny.3 mph48%29.93 "Hg10 mi
11:54 AM87 °FSunny.No wind53%29.95 "Hg10 mi
10:54 AM85 °FSunny.5 mph59%29.95 "Hg10 mi
9:54 AM81 °FPassing clouds.No wind69%29.95 "Hg10 mi
8:54 AM77 °FSunny.No wind77%29.94 "Hg10 mi
7:54 AM75 °FSunny.3 mph82%29.92 "Hg10 mi
6:54 AM72 °FClear.No wind84%29.90 "Hg10 mi
5:54 AM72 °FClear.No wind84%29.88 "Hg10 mi
4:54 AM73 °FClear.No wind79%29.89 "Hg10 mi
3:54 AM73 °FClear.No wind81%29.88 "Hg10 mi
2:54 AM75 °FClear.5 mph79%29.90 "Hg10 mi
1:54 AM75 °FClear.3 mph76%29.91 "Hg10 mi
Weather by CustomWeather, © 2015

See weather overviewHow to use our weather pages